Location: Les Martinières
(47.2667°N, 1.4410°E)
Time: 23:45:40
(UTC+00:00)

CZ-4B R/B - Pass Details

Date: 15 May 2026
Orbit: 700 x 797 km, 98.9° (Epoch: 9 June)

Event Time Altitude Azimuth Distance (km) Brightness Sun altitude
Exits shadow 21:23:17 25° 164° (SSE) 1,410 4.3 -15.9°
Maximum altitude 21:26:05 90° 198° (SSW) 719 3.3 -16.2°
Drops below altitude 10° 21:30:58 10° 345° (NNW) 2,224 7.0 -16.6°
Sets 21:33:16 0° 346° (NNW) 3,164 8.1 -16.9°
